User: anonymous   Login
Location: *
(50.3194°N, 7.1067°E)
Time: 08:35:49
(UTC+00:00)
Language:

Cosmos 1603 - Orbit

View from above orbital plane
View from above orbital plane
View from above satellite
View from above satellite

Ground track
Ground track

The orbit data is extracted from the following two-line orbital elements,

1 15333U 84106A   19315.86303759 -.00000204 +00000-0 -81850-4 0  9998
2 15333 071.0288 054.4724 0021927 306.8028 053.1082 14.14097763812098
Epoch (UTC): 11 November 2019 20:42:46
Eccentricity: 0.0021927
inclination: 71.0288°
perigee height: 829 km
apogee height: 861 km
right ascension of ascending node: 54.4724°
argument of perigee: 306.8028°
revolutions per day: 14.14097763
mean anomaly at epoch: 53.1082°
orbit number at epoch: 81209

The dashed part of the orbit path shows where the satellite is in the earth's shadow,  

DLR